Waarnemingen

Advertentie
Mijn weer
K14A, Nederland (6204): temperatuur & dauwpunt: 15.10.2017 03:00:00 - 21.10.2017 03:00:00 (CEST)K14A, Nederland (6204): windsnelheid & windstoten: 15.10.2017 03:00:00 - 21.10.2017 03:00:00 (CEST)K14A, Nederland (6204): windrichting: 15.10.2017 03:00:00 - 21.10.2017 03:00:00 (CEST)K14A, Nederland (6204): luchtdruk: 15.10.2017 03:00:00 - 21.10.2017 03:00:00 (CEST)K14A, Nederland (6204): zicht: 15.10.2017 03:00:00 - 21.10.2017 03:00:00 (CEST)
Datum & Tijd tt [°C] td [°C] ff [km/u] ff [kn] fx [km/u] fx [kn] dd ppp [hPa] vv [km]
21.10.2017 03:00:00 15,0 10,0 35 19 - - ZZW 1007,7 10
21.10.2017 02:00:00 14,1 9,1 34 18 - - ZW 1008,3 10
21.10.2017 01:00:00 13,7 7,5 39 21 43 23 ZW 1008,8 10
21.10.2017 00:00:00 13,9 8,1 48 26 50 27 WZW 1009,0 10
20.10.2017 23:00:00 14,4 9,9 52 28 - - WZW 1009,1 10
20.10.2017 22:00:00 14,5 10,9 59 32 58 31 W 1008,5 10
20.10.2017 21:00:00 14,5 11,8 61 33 61 33 W 1007,9 10
20.10.2017 20:00:00 14,7 11,9 44 24 47 25 W 1006,9 10
20.10.2017 19:00:00 14,6 11,4 42 23 47 25 W 1006,1 10
20.10.2017 18:00:00 14,3 11,0 48 26 50 27 W 1005,3 10
20.10.2017 17:00:00 13,5 11,4 42 23 54 29 W 1004,7 10
20.10.2017 16:00:00 13,6 11,7 42 23 43 23 WZW 1003,5 10
20.10.2017 15:00:00 14,2 11,4 44 24 43 23 W 1002,6 10
20.10.2017 14:00:00 14,4 12,0 37 20 40 21 WZW 1001,7 10
20.10.2017 13:00:00 14,0 12,3 37 20 50 27 ZZW 1000,7 10
20.10.2017 12:00:00 14,3 12,0 54 29 58 31 Z 1000,3 10
20.10.2017 11:00:00 14,7 11,6 48 26 54 29 Z 1000,6 10
20.10.2017 10:00:00 15,4 10,9 50 27 54 29 ZZW 1001,0 10
20.10.2017 09:00:00 15,4 11,7 35 19 43 23 Z 1001,1 10
20.10.2017 08:00:00 14,2 11,1 46 25 61 33 ZZW 1001,3 10
20.10.2017 07:00:00 15,3 12,8 46 25 65 35 Z 1000,9 10
20.10.2017 06:00:00 16,6 12,8 48 26 61 33 Z 1001,1 10
20.10.2017 05:00:00 16,9 13,8 41 22 47 25 Z 1001,7 10
20.10.2017 04:00:00 16,9 13,9 44 24 43 23 Z 1002,1 10
20.10.2017 03:00:00 17,0 13,9 41 22 43 23 ZZO 1002,6 10
20.10.2017 02:00:00 17,4 14,0 44 24 43 23 Z 1003,2 10
20.10.2017 01:00:00 17,2 14,2 39 21 40 21 ZZO 1003,4 10
20.10.2017 00:00:00 17,3 14,3 34 18 40 21 Z 1004,0 10
19.10.2017 23:00:00 17,3 14,3 39 21 40 21 ZZO 1004,3 10
19.10.2017 22:00:00 17,6 14,4 41 22 43 23 Z 1004,6 10
19.10.2017 21:00:00 17,4 14,3 42 23 47 25 ZZO 1004,7 10
19.10.2017 20:00:00 17,4 14,0 41 22 40 21 ZZO 1005,2 10
19.10.2017 19:00:00 16,8 13,8 42 23 43 23 ZZO 1005,7 10
19.10.2017 18:00:00 16,8 13,6 39 21 47 25 ZO 1005,3 10
19.10.2017 17:00:00 17,0 13,6 42 23 43 23 ZO 1005,7 10
19.10.2017 16:00:00 17,0 13,4 37 20 36 19 ZO 1006,4 10
19.10.2017 15:00:00 16,3 13,7 34 18 36 19 ZO 1007,4 10
19.10.2017 14:00:00 15,9 13,9 35 19 36 19 ZZO 1008,2 10
19.10.2017 13:00:00 15,8 14,1 28 15 29 16 ZZO 1009,0 9
19.10.2017 12:00:00 15,8 14,3 26 14 25 14 ZZO 1009,5 8
19.10.2017 11:00:00 15,7 14,4 26 14 32 18 ZZO 1009,6 6
19.10.2017 10:00:00 15,7 14,5 34 18 32 18 ZZO 1009,2 5
19.10.2017 09:00:00 15,6 14,8 21 11 25 14 ZO 1009,3 3,0
19.10.2017 08:00:00 15,1 14,1 21 11 25 14 ZZO 1009,3 2,7
19.10.2017 07:00:00 15,6 14,1 13 7 14 8 ZZO 1009,6 5
19.10.2017 06:00:00 15,7 14,0 15 8 18 10 Z 1010,2 8
19.10.2017 05:00:00 15,7 14,2 18 10 25 14 ZZW 1010,6 6
19.10.2017 04:00:00 15,4 14,1 18 10 22 12 ZZW 1010,8 4,7
19.10.2017 03:00:00 15,5 14,2 22 12 25 14 ZZW 1011,1 3,6
19.10.2017 02:00:00 15,7 14,2 21 11 22 12 ZZO 1011,0 7
19.10.2017 01:00:00 15,4 13,7 21 11 25 14 ZO 1011,4 8
19.10.2017 00:00:00 15,3 13,2 26 14 29 16 OZO 1011,4 10
18.10.2017 23:00:00 15,1 12,7 29 16 32 18 OZO 1011,8 10
18.10.2017 22:00:00 14,9 12,3 34 18 32 18 O 1011,9 10
18.10.2017 21:00:00 14,9 11,4 31 17 32 18 O 1012,3 10
18.10.2017 20:00:00 14,9 11,6 34 18 32 18 O 1012,6 10
18.10.2017 19:00:00 14,8 11,0 31 17 32 18 O 1012,8 10
18.10.2017 18:00:00 14,8 10,7 31 17 32 18 ONO 1012,6 10
18.10.2017 17:00:00 14,7 10,6 29 16 29 16 ONO 1012,7 10
18.10.2017 16:00:00 14,7 10,6 24 13 25 14 ONO 1013,2 10
18.10.2017 15:00:00 14,8 10,4 22 12 22 12 ONO 1013,5 10
18.10.2017 14:00:00 14,9 10,5 21 11 22 12 O 1014,0 10
18.10.2017 13:00:00 14,9 10,4 18 10 22 12 O 1014,5 10
18.10.2017 12:00:00 14,7 10,2 16 9 22 12 NO 1014,7 10
18.10.2017 11:00:00 14,4 9,8 15 8 18 10 NO 1015,0 10
18.10.2017 10:00:00 14,2 8,6 15 8 18 10 NO 1014,8 10
18.10.2017 09:00:00 14,0 7,4 15 8 18 10 NNO 1014,6 10
18.10.2017 08:00:00 14,1 7,7 11 6 11 6 NNO 1014,8 10
18.10.2017 07:00:00 14,0 9,1 13 7 14 8 N 1015,0 10
18.10.2017 06:00:00 14,0 8,4 11 6 18 10 NNW 1015,5 10
18.10.2017 05:00:00 14,0 8,2 13 7 18 10 NW 1015,7 10
18.10.2017 04:00:00 14,2 9,0 9 5 22 12 - 1016,1 10
18.10.2017 03:00:00 14,8 8,5 21 11 25 14 W 1016,7 10
18.10.2017 02:00:00 14,7 8,3 22 12 29 16 W 1017,1 10
18.10.2017 01:00:00 14,7 7,9 21 11 22 12 WZW 1017,2 10
18.10.2017 00:00:00 14,7 8,7 26 14 29 16 WZW 1017,4 10
17.10.2017 23:00:00 14,8 8,5 29 16 32 18 WZW 1017,6 10
17.10.2017 22:00:00 14,8 8,4 29 16 32 18 WZW 1017,3 10
17.10.2017 21:00:00 14,8 8,4 31 17 36 19 WZW 1017,2 10
17.10.2017 20:00:00 14,9 8,1 41 22 40 21 WZW 1017,5 10
17.10.2017 19:00:00 14,9 9,6 42 23 43 23 WZW 1017,6 10
17.10.2017 18:00:00 14,6 9,0 46 25 43 23 WZW 1017,2 10
17.10.2017 17:00:00 14,6 8,8 46 25 47 25 ZW 1017,8 10
17.10.2017 16:00:00 14,5 8,3 50 27 50 27 ZW 1017,6 10
17.10.2017 15:00:00 14,3 8,2 50 27 50 27 ZW 1017,7 10
17.10.2017 14:00:00 14,2 8,0 52 28 54 29 ZW 1018,4 10
17.10.2017 13:00:00 14,1 7,7 52 28 58 31 WZW 1019,0 10
17.10.2017 12:00:00 14,0 7,8 54 29 58 31 ZW 1019,0 10
17.10.2017 11:00:00 13,9 8,3 55 30 58 31 ZW 1018,7 10
17.10.2017 10:00:00 14,1 8,5 55 30 58 31 ZW 1018,3 10
17.10.2017 09:00:00 14,4 8,9 59 32 61 33 WZW 1018,0 10
17.10.2017 08:00:00 14,4 8,5 61 33 65 35 WZW 1018,0 10
17.10.2017 07:00:00 14,6 8,7 65 35 65 35 WZW 1017,7 10
17.10.2017 06:00:00 14,7 8,3 67 36 68 37 WZW 1017,9 10
17.10.2017 05:00:00 14,9 8,4 67 36 72 39 ZW 1017,0 10
17.10.2017 04:00:00 15,1 9,0 68 37 72 39 WZW 1016,9 10
17.10.2017 03:00:00 15,3 9,4 67 36 72 39 ZW 1017,3 10
17.10.2017 02:00:00 15,6 9,5 67 36 72 39 ZW 1017,0 10
17.10.2017 01:00:00 16,1 10,7 67 36 68 37 ZW 1016,6 10
17.10.2017 00:00:00 16,7 11,5 67 36 68 37 ZW 1016,3 10
16.10.2017 23:00:00 17,4 11,3 63 34 68 37 ZZW 1016,0 10
16.10.2017 22:00:00 18,4 14,0 67 36 65 35 ZZW 1015,5 10
16.10.2017 21:00:00 17,8 15,0 57 31 58 31 ZZW 1015,1 10
16.10.2017 20:00:00 18,2 14,8 57 31 58 31 Z 1015,1 10
16.10.2017 19:00:00 18,6 15,0 55 30 58 31 Z 1015,0 10
16.10.2017 18:00:00 18,6 15,2 55 30 58 31 Z 1014,7 10
16.10.2017 17:00:00 18,4 15,2 52 28 50 27 Z 1015,0 10
16.10.2017 16:00:00 17,9 15,0 50 27 50 27 Z 1015,6 10
16.10.2017 15:00:00 17,6 15,0 48 26 47 25 Z 1016,6 10
16.10.2017 14:00:00 17,4 15,1 41 22 40 21 Z 1017,1 10
16.10.2017 13:00:00 17,7 15,4 39 21 40 21 Z 1017,8 10
16.10.2017 12:00:00 17,3 15,6 37 20 40 21 ZZW 1018,2 10
16.10.2017 11:00:00 17,1 15,2 39 21 40 21 WZW 1018,3 10
16.10.2017 10:00:00 16,9 15,1 42 23 40 21 ZW 1018,1 10
16.10.2017 09:00:00 16,8 15,1 41 22 40 21 ZZW 1017,7 10
16.10.2017 08:00:00 16,7 15,2 35 19 32 18 ZZW 1017,4 10
16.10.2017 07:00:00 16,5 15,1 29 16 32 18 ZZW 1017,5 6
16.10.2017 06:00:00 16,4 15,0 29 16 29 16 ZZW 1017,7 7
16.10.2017 05:00:00 16,3 14,9 21 11 22 12 Z 1017,7 8
16.10.2017 04:00:00 16,1 14,6 21 11 25 14 ZZW 1018,0 10
16.10.2017 03:00:00 16,1 14,6 22 12 22 12 ZW 1018,4 10
16.10.2017 02:00:00 16,2 14,4 28 15 29 16 WZW 1018,6 10
16.10.2017 01:00:00 16,2 14,3 31 17 32 18 ZW 1018,4 10
16.10.2017 00:00:00 16,4 14,3 35 19 36 19 WZW 1018,3 10
15.10.2017 23:00:00 16,3 14,5 35 19 36 19 ZW 1018,1 10
15.10.2017 22:00:00 16,6 14,5 39 21 40 21 ZZW 1017,6 10
15.10.2017 21:00:00 16,6 14,6 41 22 43 23 ZZW 1017,4 10
15.10.2017 20:00:00 16,8 14,4 42 23 47 25 ZZW 1017,6 10
15.10.2017 19:00:00 17,0 14,2 46 25 54 29 ZZW 1017,5 10
15.10.2017 18:00:00 17,4 14,2 48 26 47 25 Z 1016,7 10
15.10.2017 17:00:00 17,2 14,2 46 25 47 25 Z 1017,0 10
15.10.2017 16:00:00 17,2 14,0 44 24 47 25 Z 1017,1 10
15.10.2017 15:00:00 17,1 14,2 42 23 47 25 ZZW 1017,5 10
15.10.2017 14:00:00 17,0 14,3 50 27 47 25 Z 1017,8 10
15.10.2017 13:00:00 16,8 14,2 46 25 47 25 Z 1018,2 10
15.10.2017 12:00:00 16,7 14,3 41 22 43 23 Z 1018,7 10
15.10.2017 11:00:00 16,8 14,5 41 22 43 23 Z 1019,4 10
15.10.2017 10:00:00 16,6 14,5 41 22 43 23 Z 1019,6 10
15.10.2017 09:00:00 16,5 14,6 42 23 43 23 Z 1019,9 9
15.10.2017 08:00:00 16,4 14,6 37 20 36 19 Z 1020,3 6
15.10.2017 07:00:00 16,3 14,5 34 18 32 18 Z 1021,0 7
15.10.2017 06:00:00 16,4 14,4 31 17 36 19 Z 1021,5 10
15.10.2017 05:00:00 16,3 14,2 35 19 36 19 Z 1021,8 10
15.10.2017 04:00:00 16,2 14,7 31 17 29 16 Z 1022,3 10
15.10.2017 03:00:00 16,0 14,9 29 16 32 18 ZZW 1023,0 10

tt = temperatuur
td = dauwpunt
ff = windsnelheid
fx = windstoten
dd = windrichting
ppp = luchtdruk
vv = zicht

Weerstations in de omgeving